Content
SEND FEEDBACK

Daily
Averages
Monthly
Summary
United States of America

PALMERDALE, ALABAMA


Home > North America > United States > Alabama
Elevation: 80 feet     Latitude: 33 46N     Longitude: 086 40W

WEATHER
 
SELECT A DAY
Number of Records: 202,550;   Date Range: 1/1/95 - 11/26/14
 
SHARE

PRINT THIS DATA

[ ← Previous Day ]
WEATHER ALMANAC - FEBRUARY 13, 2013
[ Next Day → ]
[ °C ]   °F
Weather ElementAverageHighLow
Temperature45 °F48.9 °F (5:53 am)36 °F (9:53 pm)
Dewpoint40.4 °F46.9 °F (4:53 am)33.1 °F (9:53 pm)
Humidity84.3 %100 % (3:06 am)71 % (1:35 pm)
Barometer29.90 in30.06 in (10:53 pm)29.75 in (2:53 am)
Wind Speed9.9 mph20.7 mph (6:53 am)
Wind Gust29.9 mph (6:53 am)
Weather ElementAverage
Visibility8.6 mi
Wind DirectionWSW (251.7 °)

Weather ElementTotal
Precipitation0.01 in
Heating Degree Days22.6 (Base 65)
Averaged from 36 records on February 13, 2013
WEATHER CONDITIONS BREAKOUT
WIND DIRECTION BREAKOUT
WEATHER BY HOUR - FEBRUARY 13, 2013
[ °C ]   °F
Local TimeTemperatureDewpointHumidityBarometerVisibilityWind DirectionWind SpeedGust SpeedPrecipitationEventsConditions
1:53 AM46.0 °F45.0 °F96 %29.76 in6.0 miCalmOvercast
2:53 AM46.0 °F45.0 °F96 %29.75 in2.5 miSE (140°)5.8 mphOvercast
3:06 AM46.4 °F46.4 °F100 %29.76 in3.0 miCalmOvercast
3:18 AM46.4 °F46.4 °F100 %29.75 in2.0 miCalmOvercast
3:53 AM46.9 °F46.0 °F97 %29.76 in2.0 miCalm0.01 inOvercast
4:27 AM48.2 °F46.4 °F93 %29.78 in5.0 miSW (230°)11.5 mphOvercast
4:53 AM48.0 °F46.9 °F96 %29.78 in7.0 miWSW (240°)11.5 mphOvercast
5:53 AM48.9 °F46.9 °F93 %29.79 in10.0 miWSW (250°)16.1 mph23.0 mphOvercast
6:53 AM48.0 °F45.0 °F89 %29.84 in10.0 miWest (260°)20.7 mph29.9 mphOvercast
7:53 AM46.0 °F43.0 °F89 %29.85 in7.0 miWest (280°)17.3 mph24.2 mphOvercast
8:00 AM46.4 °F42.8 °F87 %29.86 in10.0 miWest (270°)19.6 mph26.5 mphMostly Cloudy
8:31 AM46.4 °F42.8 °F87 %29.87 in10.0 miWest (270°)16.1 mph23.0 mphMostly Cloudy
8:39 AM46.4 °F42.8 °F87 %29.87 in10.0 miWest (270°)15.0 mph23.0 mphMostly Cloudy
8:53 AM46.0 °F42.1 °F86 %29.88 in10.0 miWest (280°)10.4 mphOvercast
9:23 AM46.4 °F42.8 °F87 %29.87 in10.0 miWest (260°)10.4 mph18.4 mphMostly Cloudy
9:53 AM46.9 °F41.0 °F80 %29.88 in10.0 miWest (270°)11.5 mphMostly Cloudy
10:53 AM46.9 °F41.0 °F80 %29.91 in10.0 miWest (260°)12.7 mphOvercast
11:53 AM46.9 °F41.0 °F80 %29.91 in10.0 miWest (260°)13.8 mphOvercast
12:53 PM46.9 °F41.0 °F80 %29.89 in10.0 miWest (260°)12.7 mphOvercast
1:35 PM48.2 °F39.2 °F71 %29.90 in10.0 miWest (280°)12.7 mphOvercast
1:53 PM46.9 °F39.9 °F77 %29.90 in10.0 miWNW (300°)12.7 mphOvercast
1:57 PM46.4 °F39.2 °F76 %29.90 in10.0 miWNW (290°)15.0 mph25.3 mphOvercast
2:53 PM46.9 °F37.9 °F71 %29.93 in10.0 miWNW (290°)15.0 mphOvercast
3:11 PM46.4 °F37.4 °F71 %29.94 in10.0 miNW (310°)12.7 mphOvercast
3:53 PM46.0 °F37.9 °F73 %29.95 in10.0 miNW (310°)12.7 mphOvercast
4:23 PM44.6 °F37.4 °F76 %29.97 in10.0 miNW (320°)13.8 mph20.7 mphOvercast
4:53 PM45.0 °F37.0 °F74 %29.98 in10.0 miNW (310°)9.2 mphOvercast
5:53 PM44.1 °F37.0 °F76 %30.00 in10.0 miNW (320°)8.1 mphOvercast
6:08 PM44.6 °F35.6 °F71 %30.00 in10.0 miNNW (330°)6.9 mphOvercast
6:53 PM43.0 °F35.1 °F74 %30.01 in10.0 miNNW (330°)5.8 mphOvercast
7:53 PM42.1 °F34.0 °F73 %30.02 in10.0 miWNW (300°)3.5 mphMostly Cloudy
8:53 PM37.9 °F34.0 °F86 %30.04 in10.0 miWNW (290°)4.6 mphClear
9:53 PM36.0 °F33.1 °F89 %30.05 in8.0 miNW (320°)3.5 mphClear
10:53 PM36.0 °F34.0 °F93 %30.06 in9.0 miNW (320°)3.5 mphClear
11:26 PM37.4 °F35.6 °F93 %30.06 in8.0 miNW (320°)3.5 mphMostly Cloudy
11:53 PM39.9 °F37.0 °F89 %30.06 in10.0 miNW (320°)6.9 mphOvercast
Hourly data recorded from KBHM, located miles away from Palmerdale, Alabama







STORIES FROM OUR PARTNERS